| time (UTC) | temp C | wind direction | speed KPH | gust KPH | rain 1hr cm | rain 24hr cm | rain mn cm | humidity % | barometer mb |
| 20260904115522 | 11 | 284 | 0.0 | 0.0 | 0.13 | 0.76 | 0.18 | 90 | 998.7 |
| 20260904115032 | 11 | 284 | 0.0 | 0.0 | 0.15 | 0.76 | 0.18 | 90 | 998.6 |
| 20260904114605 | 11 | 284 | 0.0 | 0.0 | 0.18 | 0.76 | 0.18 | 90 | 998.6 |
| 20260904114002 | 11 | 284 | 0.0 | 0.0 | 0.18 | 0.76 | 0.18 | 90 | 998.6 |
| 20260904113506 | 11 | 284 | 0.0 | 0.0 | 0.18 | 0.76 | 0.18 | 90 | 998.5 |
| 20260904113033 | 11 | 284 | 0.0 | 0.0 | 0.15 | 0.71 | 0.15 | 90 | 998.5 |
| 20260904112537 | 11 | 284 | 0.0 | 0.0 | 0.15 | 0.71 | 0.15 | 90 | 998.4 |
| 20260904112039 | 11 | 284 | 0.0 | 0.0 | 0.13 | 0.71 | 0.13 | 90 | 998.4 |
| 20260904111515 | 11 | 284 | 0.0 | 0.0 | 0.10 | 0.69 | 0.10 | 90 | 998.3 |
| 20260904111022 | 11 | 284 | 0.0 | 0.0 | 0.10 | 0.69 | 0.10 | 90 | 998.3 |
| 20260904110525 | 11 | 313 | 0.0 | 0.0 | 0.08 | 0.66 | 0.08 | 90 | 998.3 |
| 20260904110050 | 11 | 313 | 0.0 | 0.0 | 0.05 | 0.64 | 0.05 | 90 | 998.2 |
| 20260904105558 | 11 | 313 | 0.0 | 0.0 | 0.05 | 0.64 | 0.05 | 90 | 998.3 |
| 20260904105108 | 11 | 313 | 0.0 | 0.0 | 0.03 | 0.61 | 0.03 | 90 | 998.3 |
| 20260904104600 | 11 | 313 | 0.0 | 0.0 | 0.00 | 0.58 | 0.00 | 89 | 998.3 |
| 20260904104045 | 11 | 313 | 0.0 | 0.0 | 0.00 | 0.58 | 0.00 | 90 | 998.3 |
| 20260904103553 | 11 | 313 | 0.0 | 0.0 | 0.00 | 0.58 | 0.00 | 90 | 998.3 |
| 20260904103024 | 11 | 313 | 0.0 | 0.0 | 0.00 | 0.58 | 0.00 | 89 | 998.2 |
| 20260904102530 | 11 | 313 | 0.0 | 0.0 | 0.00 | 0.58 | 0.00 | 89 | 998.1 |
| 20260904102039 | 11 | 313 | 0.0 | 0.0 | 0.00 | 0.58 | 0.00 | 89 | 998.2 |
| 20260904101505 | 11 | 313 | 0.0 | 0.0 | 0.00 | 0.58 | 0.00 | 89 | 998.3 |
| 20260904101016 | 10 | 313 | 0.0 | 0.0 | 0.00 | 0.58 | 0.00 | 89 | 998.2 |
| 20260904100525 | 10 | 313 | 0.0 | 0.0 | 0.00 | 0.58 | 0.00 | 89 | 998.1 |
| 20260904100109 | 10 | 313 | 0.0 | 0.0 | 0.00 | 0.61 | 0.00 | 89 | 998.1 |
| 20260904095556 | 10 | 313 | 0.0 | 0.0 | 0.00 | 0.61 | 0.00 | 89 | 998.2 |
| 20260904095004 | 10 | 313 | 0.0 | 0.0 | 0.00 | 0.61 | 0.00 | 89 | 998.1 |
| 20260904094550 | 11 | 313 | 0.0 | 0.0 | 0.00 | 0.61 | 0.00 | 89 | 998.2 |
| 20260904094036 | 11 | 313 | 0.0 | 0.0 | 0.00 | 0.61 | 0.00 | 89 | 998.1 |
| 20260904093541 | 11 | 313 | 0.0 | 0.0 | 0.00 | 0.61 | 0.00 | 89 | 998.1 |
| 20260904093017 | 11 | 313 | 0.0 | 0.0 | 0.00 | 0.61 | 0.00 | 89 | 998.1 |
| 20260904092523 | 11 | 313 | 0.0 | 0.0 | 0.00 | 0.61 | 0.00 | 89 | 998.1 |
| 20260904092023 | 11 | 313 | 0.0 | 0.0 | 0.00 | 0.61 | 0.00 | 89 | 997.9 |
| 20260904091552 | 11 | 313 | 0.0 | 0.0 | 0.00 | 0.61 | 0.00 | 89 | 997.9 |
| 20260904091059 | 11 | 313 | 0.0 | 0.0 | 0.00 | 0.61 | 0.00 | 89 | 997.9 |
| 20260904090559 | 11 | 313 | 0.0 | 0.0 | 0.00 | 0.61 | 0.00 | 89 | 997.9 |
| 20260904090034 | 11 | 313 | 0.0 | 0.0 | 0.00 | 0.61 | 0.00 | 89 | 998.0 |
| 20260904085542 | 11 | 313 | 0.0 | 0.0 | 0.00 | 0.61 | 0.00 | 89 | 997.9 |
| 20260904085048 | 11 | 313 | 0.0 | 0.0 | 0.00 | 0.61 | 0.00 | 89 | 997.9 |
| 20260904084518 | 11 | 313 | 0.0 | 0.0 | 0.00 | 0.61 | 0.00 | 89 | 997.9 |
| 20260904084029 | 11 | 313 | 0.0 | 0.0 | 0.00 | 0.61 | 0.00 | 89 | 997.9 |
| 20260904083535 | 11 | 313 | 0.0 | 0.0 | 0.00 | 0.61 | 0.00 | 89 | 997.9 |
| 20260904083102 | 11 | 313 | 0.0 | 0.0 | 0.00 | 0.61 | 0.00 | 89 | 997.9 |
| 20260904082504 | 11 | 313 | 0.0 | 0.0 | 0.00 | 0.61 | 0.00 | 89 | 997.9 |
| 20260904082016 | 11 | 313 | 0.0 | 0.0 | 0.00 | 0.61 | 0.00 | 89 | 998.0 |
| 20260904081548 | 11 | 313 | 0.0 | 0.0 | 0.00 | 0.61 | 0.00 | 89 | 998.0 |
| 20260904081056 | 11 | 313 | 0.0 | 0.0 | 0.00 | 0.61 | 0.00 | 89 | 997.9 |
| 20260904080602 | 11 | 313 | 0.0 | 0.0 | 0.00 | 0.61 | 0.00 | 89 | 998.0 |
| 20260904080040 | 11 | 313 | 0.0 | 0.0 | 0.00 | 0.61 | 0.00 | 89 | 997.9 |
| 20260904075538 | 11 | 313 | 0.0 | 0.0 | 0.00 | 0.61 | 0.00 | 89 | 998.0 |
| 20260904075046 | 11 | 313 | 0.0 | 0.0 | 0.00 | 0.61 | 0.00 | 89 | 998.2 |
| 20260904074528 | 11 | 313 | 0.0 | 0.0 | 0.00 | 0.61 | 0.00 | 89 | 998.1 |
| 20260904074030 | 11 | 313 | 0.0 | 0.0 | 0.00 | 0.61 | 0.00 | 89 | 998.1 |
| 20260904073536 | 11 | 313 | 0.0 | 0.0 | 0.00 | 0.61 | 0.00 | 89 | 998.1 |
| 20260904073013 | 11 | 313 | 0.0 | 0.0 | 0.00 | 0.61 | 0.00 | 88 | 998.0 |
| 20260904072508 | 11 | 313 | 0.0 | 0.0 | 0.00 | 0.61 | 0.00 | 89 | 998.1 |
| 20260904072011 | 11 | 313 | 0.0 | 0.0 | 0.00 | 0.61 | 0.00 | 89 | 998.1 |
| 20260904071553 | 11 | 313 | 0.0 | 0.0 | 0.00 | 0.61 | 0.00 | 89 | 998.0 |
| 20260904071057 | 11 | 313 | 0.0 | 0.0 | 0.00 | 0.61 | 0.00 | 88 | 997.9 |
| 20260904070556 | 11 | 313 | 0.0 | 0.0 | 0.00 | 0.61 | 0.00 | 88 | 997.9 |
| 20260904070040 | 11 | 313 | 0.0 | 0.0 | 0.00 | 0.61 | 0.61 | 88 | 997.9 |
| 20260904065533 | 11 | 313 | 0.0 | 0.0 | 0.00 | 0.61 | 0.61 | 88 | 997.9 |
| 20260904065038 | 12 | 313 | 0.0 | 0.0 | 0.00 | 0.61 | 0.61 | 88 | 998.0 |
| 20260904064607 | 12 | 313 | 0.0 | 0.0 | 0.00 | 0.61 | 0.61 | 88 | 998.0 |
| 20260904064004 | 12 | 313 | 0.0 | 0.0 | 0.00 | 0.61 | 0.61 | 88 | 997.9 |
| 20260904063520 | 12 | 313 | 0.0 | 0.0 | 0.00 | 0.61 | 0.61 | 88 | 997.9 |
| 20260904063044 | 12 | 313 | 0.0 | 0.0 | 0.00 | 0.61 | 0.61 | 88 | 997.9 |
| 20260904062542 | 12 | 313 | 0.0 | 0.0 | 0.00 | 0.61 | 0.61 | 88 | 997.8 |
| 20260904062051 | 12 | 313 | 0.0 | 0.0 | 0.00 | 0.61 | 0.61 | 88 | 997.8 |
| 20260904061527 | 12 | 313 | 0.0 | 0.0 | 0.00 | 0.61 | 0.61 | 88 | 997.8 |
| 20260904061016 | 12 | 313 | 0.0 | 0.0 | 0.00 | 0.61 | 0.61 | 88 | 997.8 |
| 20260904060524 | 12 | 313 | 0.0 | 0.0 | 0.00 | 0.61 | 0.61 | 88 | 997.7 |
| 20260904060120 | 12 | 313 | 0.0 | 0.0 | 0.00 | 0.64 | 0.61 | 88 | 997.8 |
| 20260904055502 | 12 | 313 | 0.0 | 0.0 | 0.00 | 0.64 | 0.61 | 88 | 997.8 |
| 20260904055006 | 12 | 313 | 0.0 | 0.0 | 0.00 | 0.64 | 0.61 | 88 | 997.8 |
| 20260904054548 | 12 | 313 | 0.0 | 0.0 | 0.00 | 0.64 | 0.61 | 88 | 997.9 |
| 20260904054048 | 12 | 313 | 0.0 | 0.0 | 0.00 | 0.64 | 0.61 | 88 | 997.9 |
| 20260904053556 | 12 | 313 | 0.0 | 0.0 | 0.00 | 0.64 | 0.61 | 88 | 997.9 |
| 20260904053110 | 12 | 313 | 0.0 | 0.0 | 0.00 | 0.64 | 0.61 | 88 | 997.8 |
| 20260904052542 | 12 | 313 | 0.0 | 0.0 | 0.00 | 0.64 | 0.61 | 88 | 997.9 |
| 20260904052048 | 12 | 313 | 0.0 | 0.0 | 0.00 | 0.64 | 0.61 | 88 | 997.9 |
| 20260904051529 | 12 | 313 | 0.0 | 0.0 | 0.00 | 0.64 | 0.61 | 88 | 997.8 |
| 20260904051031 | 12 | 313 | 0.0 | 0.0 | 0.00 | 0.64 | 0.61 | 88 | 997.9 |
| 20260904050525 | 12 | 313 | 0.0 | 0.0 | 0.00 | 0.64 | 0.61 | 88 | 998.0 |
| 20260904050036 | 12 | 313 | 0.0 | 0.0 | 0.00 | 0.64 | 0.61 | 88 | 998.0 |
| 20260904045542 | 12 | 313 | 0.0 | 0.0 | 0.00 | 0.64 | 0.61 | 88 | 997.9 |
| 20260904045050 | 12 | 313 | 0.0 | 0.0 | 0.00 | 0.64 | 0.61 | 88 | 997.9 |
| 20260904044515 | 12 | 313 | 0.0 | 1.6 | 0.00 | 0.64 | 0.61 | 88 | 998.0 |
| 20260904044021 | 12 | 313 | 0.0 | 1.6 | 0.00 | 0.64 | 0.61 | 88 | 998.0 |
| 20260904043529 | 12 | 313 | 0.0 | 3.2 | 0.00 | 0.64 | 0.61 | 88 | 998.0 |
| 20260904043014 | 12 | 313 | 0.0 | 3.2 | 0.00 | 0.64 | 0.61 | 88 | 998.0 |
| 20260904042520 | 12 | 313 | 0.0 | 3.2 | 0.00 | 0.64 | 0.61 | 88 | 997.9 |
| 20260904042028 | 12 | 279 | 0.0 | 1.6 | 0.00 | 0.64 | 0.61 | 88 | 997.8 |
| 20260904041557 | 12 | 279 | 0.0 | 0.0 | 0.00 | 0.64 | 0.61 | 88 | 997.8 |
| 20260904041059 | 12 | 278 | 0.0 | 4.8 | 0.00 | 0.64 | 0.61 | 88 | 997.9 |
| 20260904040503 | 12 | 278 | 0.0 | 6.4 | 0.00 | 0.64 | 0.61 | 88 | 997.8 |
| 20260904040046 | 12 | 252 | 1.6 | 6.4 | 0.00 | 0.64 | 0.61 | 88 | 997.9 |
| 20260904035548 | 12 | 24 | 0.0 | 14.5 | 0.00 | 0.64 | 0.61 | 88 | 997.8 |
| 20260904035055 | 12 | 134 | 0.0 | 14.5 | 0.00 | 0.64 | 0.61 | 88 | 997.8 |
| 20260904034529 | 12 | 80 | 0.0 | 0.0 | 0.00 | 0.64 | 0.61 | 88 | 997.8 |
| 20260904034042 | 12 | 80 | 0.0 | 1.6 | 0.00 | 0.64 | 0.61 | 88 | 997.8 |
| 20260904033552 | 12 | 355 | 0.0 | 1.6 | 0.00 | 0.64 | 0.61 | 88 | 997.6 |
| 20260904033026 | 12 | 355 | 0.0 | 3.2 | 0.00 | 0.64 | 0.61 | 87 | 997.6 |
| 20260904032537 | 13 | 355 | 0.0 | 1.6 | 0.00 | 0.64 | 0.61 | 87 | 997.6 |
| 20260904032051 | 13 | 355 | 0.0 | 1.6 | 0.00 | 0.64 | 0.61 | 87 | 997.6 |
| 20260904031525 | 13 | 355 | 0.0 | 0.0 | 0.00 | 0.64 | 0.61 | 87 | 997.5 |
| 20260904031033 | 13 | 355 | 0.0 | 3.2 | 0.00 | 0.64 | 0.61 | 87 | 997.4 |
| 20260904030541 | 13 | 355 | 0.0 | 4.8 | 0.00 | 0.64 | 0.61 | 87 | 997.4 |
| 20260904030007 | 13 | 355 | 0.0 | 4.8 | 0.00 | 0.64 | 0.61 | 87 | 997.4 |
| 20260904025522 | 13 | 247 | 0.0 | 4.8 | 0.00 | 0.64 | 0.61 | 87 | 997.3 |
| 20260904025030 | 13 | 244 | 0.0 | 8.0 | 0.00 | 0.64 | 0.61 | 87 | 997.4 |
| 20260904024619 | 13 | 254 | 0.0 | 8.0 | 0.00 | 0.64 | 0.61 | 87 | 997.4 |
| 20260904024002 | 13 | 94 | 0.0 | 9.7 | 0.00 | 0.64 | 0.61 | 87 | 997.4 |
| 20260904023511 | 13 | 144 | 0.0 | 3.2 | 0.00 | 0.64 | 0.61 | 87 | 997.2 |
| 20260904023053 | 13 | 144 | 0.0 | 0.0 | 0.00 | 0.64 | 0.61 | 86 | 997.3 |
| 20260904022552 | 13 | 144 | 0.0 | 0.0 | 0.00 | 0.64 | 0.61 | 86 | 997.1 |
| 20260904022059 | 13 | 144 | 0.0 | 0.0 | 0.00 | 0.64 | 0.61 | 86 | 997.2 |
| 20260904021535 | 13 | 144 | 0.0 | 0.0 | 0.00 | 0.64 | 0.61 | 86 | 997.2 |
| 20260904021045 | 13 | 144 | 0.0 | 0.0 | 0.00 | 0.64 | 0.61 | 86 | 997.1 |
| 20260904020601 | 13 | 144 | 0.0 | 1.6 | 0.00 | 0.64 | 0.61 | 85 | 997.1 |
| 20260904020023 | 13 | 144 | 0.0 | 1.6 | 0.00 | 0.64 | 0.61 | 85 | 997.1 |
| 20260904015529 | 13 | 144 | 0.0 | 1.6 | 0.00 | 0.64 | 0.61 | 85 | 997.1 |
| 20260904015033 | 13 | 144 | 0.0 | 0.0 | 0.00 | 0.64 | 0.61 | 85 | 997.1 |
| 20260904014501 | 13 | 144 | 0.0 | 3.2 | 0.00 | 0.64 | 0.61 | 85 | 997.1 |
| 20260904014022 | 13 | 144 | 0.0 | 3.2 | 0.00 | 0.64 | 0.61 | 84 | 997.0 |
| 20260904013523 | 13 | 144 | 0.0 | 3.2 | 0.00 | 0.64 | 0.61 | 84 | 997.1 |
| 20260904013051 | 13 | 144 | 0.0 | 1.6 | 0.00 | 0.64 | 0.61 | 84 | 997.1 |
| 20260904012600 | 13 | 144 | 0.0 | 3.2 | 0.00 | 0.64 | 0.61 | 84 | 997.1 |
| 20260904012104 | 13 | 144 | 1.6 | 6.4 | 0.00 | 0.64 | 0.61 | 83 | 997.1 |
| 20260904011538 | 13 | 142 | 1.6 | 6.4 | 0.00 | 0.64 | 0.61 | 83 | 997.2 |
| 20260904011048 | 14 | 339 | 0.0 | 11.3 | 0.00 | 0.64 | 0.61 | 83 | 997.3 |
| 20260904010553 | 14 | 203 | 1.6 | 8.0 | 0.00 | 0.64 | 0.61 | 83 | 997.2 |
| 20260904010025 | 14 | 252 | 0.0 | 6.4 | 0.00 | 0.64 | 0.61 | 83 | 997.1 |
| 20260904005533 | 14 | 203 | 0.0 | 6.4 | 0.00 | 0.64 | 0.61 | 82 | 997.1 |
| 20260904005039 | 14 | 225 | 0.0 | 4.8 | 0.00 | 0.64 | 0.61 | 82 | 997.2 |
| 20260904004510 | 14 | 225 | 0.0 | 8.0 | 0.00 | 0.64 | 0.61 | 81 | 997.2 |
| 20260904004027 | 14 | 186 | 3.2 | 8.0 | 0.00 | 0.64 | 0.61 | 80 | 997.3 |
| 20260904003532 | 15 | 200 | 1.6 | 4.8 | 0.00 | 0.64 | 0.61 | 80 | 997.2 |
| 20260904003109 | 15 | 139 | 0.0 | 4.8 | 0.00 | 0.64 | 0.61 | 79 | 997.2 |
| 20260904002512 | 15 | 109 | 1.6 | 4.8 | 0.00 | 0.64 | 0.61 | 80 | 997.2 |
| 20260904002013 | 15 | 255 | 0.0 | 8.0 | 0.00 | 0.64 | 0.61 | 80 | 997.2 |
| 20260904001535 | 15 | 220 | 0.0 | 11.3 | 0.00 | 0.64 | 0.61 | 81 | 997.3 |
| 20260904001045 | 15 | 219 | 6.4 | 11.3 | 0.00 | 0.64 | 0.61 | 81 | 997.3 |
| 20260904000551 | 15 | 229 | 4.8 | 11.3 | 0.00 | 0.64 | 0.61 | 81 | 997.3 |
| 20260904000015 | 14 | 158 | 1.6 | 6.4 | 0.00 | 0.64 | 0.61 | 83 | 997.4 |
| 20260903235529 | 14 | 5 | 0.0 | 6.4 | 0.00 | 0.64 | 0.61 | 84 | 997.4 |
| 20260903235037 | 14 | 338 | 0.0 | 6.4 | 0.00 | 0.64 | 0.61 | 84 | 997.4 |
| 20260903234501 | 15 | 263 | 1.6 | 6.4 | 0.00 | 0.64 | 0.61 | 84 | 997.4 |
| 20260903234008 | 15 | 169 | 0.0 | 9.7 | 0.03 | 0.64 | 0.61 | 84 | 997.3 |
| 20260903233515 | 15 | 169 | 3.2 | 9.7 | 0.03 | 0.64 | 0.61 | 84 | 997.4 |
| 20260903233118 | 14 | 22 | 1.6 | 3.2 | 0.03 | 0.64 | 0.61 | 86 | 997.3 |
| 20260903232501 | 14 | 21 | 0.0 | 3.2 | 0.03 | 0.64 | 0.61 | 86 | 997.4 |
| 20260903232005 | 14 | 20 | 0.0 | 3.2 | 0.03 | 0.64 | 0.61 | 86 | 997.3 |
| 20260903231549 | 14 | 21 | 0.0 | 3.2 | 0.03 | 0.64 | 0.61 | 86 | 997.3 |
| 20260903231056 | 13 | 21 | 0.0 | 3.2 | 0.05 | 0.64 | 0.61 | 86 | 997.3 |
| 20260903230605 | 13 | 20 | 0.0 | 3.2 | 0.05 | 0.64 | 0.61 | 87 | 997.4 |
| 20260903225547 | 13 | 355 | 0.0 | 4.8 | 0.05 | 0.84 | 0.61 | 86 | 997.5 |
| 20260903225055 | 13 | 355 | 1.6 | 6.4 | 0.05 | 0.84 | 0.61 | 86 | 997.5 |
| 20260903224541 | 13 | 261 | 0.0 | 8.0 | 0.05 | 0.84 | 0.61 | 85 | 997.7 |
| 20260903224039 | 13 | 201 | 0.0 | 16.1 | 0.03 | 0.81 | 0.58 | 85 | 997.8 |
| 20260903223545 | 13 | 195 | 4.8 | 16.1 | 0.03 | 0.81 | 0.58 | 85 | 997.8 |
| 20260903223030 | 13 | 202 | 3.2 | 11.3 | 0.03 | 0.81 | 0.58 | 85 | 997.7 |
| 20260903222532 | 13 | 166 | 1.6 | 12.9 | 0.03 | 0.81 | 0.58 | 85 | 997.7 |
| 20260903222039 | 13 | 186 | 3.2 | 12.9 | 0.03 | 0.81 | 0.58 | 85 | 997.8 |
| 20260903221505 | 13 | 216 | 1.6 | 12.9 | 0.03 | 0.81 | 0.58 | 85 | 997.9 |
| 20260903221020 | 13 | 188 | 0.0 | 11.3 | 0.00 | 0.79 | 0.56 | 85 | 997.8 |
| 20260903220534 | 13 | 188 | 1.6 | 11.3 | 0.00 | 0.79 | 0.56 | 85 | 997.7 |
| 20260903220059 | 13 | 190 | 0.0 | 6.4 | 0.00 | 0.79 | 0.56 | 86 | 997.7 |
| 20260903215505 | 13 | 240 | 3.2 | 6.4 | 0.00 | 0.79 | 0.56 | 86 | 997.7 |
| 20260903215018 | 13 | 110 | 0.0 | 8.0 | 0.00 | 0.79 | 0.56 | 86 | 997.6 |
| 20260903214551 | 13 | 132 | 0.0 | 9.7 | 0.00 | 0.79 | 0.56 | 86 | 997.6 |
| 20260903214057 | 13 | 164 | 1.6 | 12.9 | 0.00 | 0.79 | 0.56 | 86 | 997.8 |
| 20260903213503 | 13 | 196 | 3.2 | 12.9 | 0.03 | 0.79 | 0.56 | 86 | 997.6 |
| 20260903213051 | 13 | 360 | 1.6 | 8.0 | 0.03 | 0.79 | 0.56 | 86 | 997.6 |
| 20260903212546 | 13 | 200 | 3.2 | 8.0 | 0.05 | 0.79 | 0.56 | 87 | 997.7 |
| 20260903212055 | 13 | 175 | 3.2 | 8.0 | 0.08 | 0.79 | 0.56 | 87 | 997.7 |
| 20260903211530 | 13 | 157 | 3.2 | 9.7 | 0.13 | 0.79 | 0.56 | 87 | 997.7 |
| 20260903211034 | 13 | 166 | 3.2 | 9.7 | 0.13 | 0.79 | 0.56 | 87 | 997.8 |
| 20260903210541 | 13 | 178 | 3.2 | 17.7 | 0.13 | 0.79 | 0.56 | 86 | 997.7 |
| 20260903210020 | 13 | 171 | 3.2 | 17.7 | 0.15 | 0.81 | 0.56 | 86 | 997.7 |
| 20260903205530 | 13 | 123 | 1.6 | 9.7 | 0.15 | 0.81 | 0.56 | 86 | 997.9 |
| 20260903205032 | 13 | 184 | 1.6 | 9.7 | 0.15 | 0.81 | 0.56 | 86 | 997.8 |
| 20260903204559 | 13 | 197 | 0.0 | 4.8 | 0.15 | 0.81 | 0.56 | 85 | 997.8 |
| 20260903204017 | 13 | 198 | 0.0 | 6.4 | 0.15 | 0.81 | 0.56 | 84 | 997.8 |
| 20260903203522 | 13 | 197 | 0.0 | 8.0 | 0.13 | 0.79 | 0.53 | 83 | 997.7 |
| 20260903203051 | 13 | 173 | 3.2 | 14.5 | 0.13 | 0.79 | 0.53 | 82 | 997.8 |
| 20260903202556 | 13 | 175 | 4.8 | 14.5 | 0.10 | 0.76 | 0.51 | 82 | 997.9 |
| 20260903202101 | 14 | 195 | 3.2 | 12.9 | 0.08 | 0.71 | 0.48 | 82 | 997.8 |
| 20260903201535 | 15 | 223 | 3.2 | 14.5 | 0.03 | 0.69 | 0.43 | 82 | 997.6 |
| 20260903201044 | 15 | 198 | 3.2 | 11.3 | 0.03 | 0.69 | 0.43 | 82 | 997.6 |
| 20260903200551 | 15 | 186 | 3.2 | 11.3 | 0.03 | 0.69 | 0.43 | 81 | 997.6 |
| 20260903200025 | 15 | 198 | 3.2 | 24.1 | 0.00 | 0.84 | 0.41 | 80 | 997.6 |
| 20260903195530 | 15 | 207 | 3.2 | 24.1 | 0.00 | 0.84 | 0.41 | 80 | 997.6 |
| 20260903195037 | 16 | 171 | 3.2 | 17.7 | 0.00 | 0.84 | 0.41 | 79 | 997.6 |
| 20260903194553 | 16 | 226 | 6.4 | 17.7 | 0.00 | 0.84 | 0.41 | 78 | 997.6 |
| 20260903194059 | 16 | 221 | 1.6 | 11.3 | 0.00 | 0.84 | 0.41 | 80 | 997.5 |
| 20260903193606 | 16 | 169 | 4.8 | 11.3 | 0.00 | 0.84 | 0.41 | 79 | 997.5 |
| 20260903193044 | 16 | 174 | 3.2 | 14.5 | 0.00 | 0.84 | 0.41 | 81 | 997.5 |
| 20260903192545 | 16 | 178 | 4.8 | 14.5 | 0.00 | 0.84 | 0.41 | 80 | 997.6 |
| 20260903192050 | 15 | 237 | 1.6 | 11.3 | 0.00 | 0.84 | 0.41 | 81 | 997.5 |
| 20260903191527 | 15 | 160 | 3.2 | 19.3 | 0.00 | 0.84 | 0.41 | 80 | 997.6 |
| 20260903191031 | 15 | 182 | 4.8 | 17.7 | 0.00 | 0.84 | 0.41 | 80 | 997.6 |
| 20260903190537 | 15 | 254 | 3.2 | 19.3 | 0.00 | 0.84 | 0.41 | 81 | 997.6 |
| 20260903190000 | 15 | 235 | 6.4 | 17.7 | 0.00 | 1.09 | 0.41 | 81 | 997.5 |
| 20260903185507 | 15 | 214 | 1.6 | 12.9 | 0.00 | 1.09 | 0.41 | 82 | 997.5 |
| 20260903185013 | 15 | 177 | 3.2 | 12.9 | 0.00 | 1.09 | 0.41 | 82 | 997.6 |
| 20260903184541 | 15 | 256 | 4.8 | 12.9 | 0.00 | 1.09 | 0.41 | 83 | 997.7 |
| 20260903184043 | 15 | 199 | 4.8 | 14.5 | 0.00 | 1.09 | 0.41 | 83 | 997.7 |
| 20260903183550 | 15 | 175 | 4.8 | 27.4 | 0.00 | 1.09 | 0.41 | 82 | 997.8 |
| 20260903183029 | 15 | 184 | 12.9 | 27.4 | 0.00 | 1.09 | 0.41 | 83 | 997.7 |
| 20260903182539 | 15 | 122 | 4.8 | 16.1 | 0.00 | 1.09 | 0.41 | 84 | 997.8 |
| 20260903182045 | 15 | 132 | 4.8 | 16.1 | 0.00 | 1.09 | 0.41 | 83 | 997.7 |
| 20260903181517 | 15 | 175 | 4.8 | 16.1 | 0.00 | 1.09 | 0.41 | 84 | 997.8 |
| 20260903181024 | 14 | 174 | 3.2 | 16.1 | 0.00 | 1.09 | 0.41 | 85 | 997.7 |
| 20260903180528 | 14 | 252 | 4.8 | 16.1 | 0.00 | 1.09 | 0.41 | 85 | 997.6 |
| 20260903180100 | 14 | 174 | 6.4 | 25.7 | 0.00 | 1.35 | 0.41 | 85 | 997.5 |
| 20260903175502 | 14 | 194 | 4.8 | 27.4 | 0.00 | 1.35 | 0.41 | 86 | 997.4 |
| 20260903175010 | 14 | 149 | 3.2 | 19.3 | 0.00 | 1.35 | 0.41 | 87 | 997.6 |
| 20260903174549 | 14 | 126 | 6.4 | 19.3 | 0.00 | 1.35 | 0.41 | 87 | 997.7 |
| 20260903174057 | 14 | 186 | 1.6 | 8.0 | 0.00 | 1.35 | 0.41 | 88 | 997.5 |
| 20260903173506 | 14 | 238 | 1.6 | 19.3 | 0.00 | 1.35 | 0.41 | 88 | 997.6 |
| 20260903173043 | 14 | 113 | 4.8 | 19.3 | 0.00 | 1.35 | 0.41 | 89 | 997.5 |
| 20260903172548 | 13 | 194 | 1.6 | 14.5 | 0.00 | 1.35 | 0.41 | 89 | 997.5 |
| 20260903172055 | 13 | 220 | 3.2 | 12.9 | 0.00 | 1.35 | 0.41 | 89 | 997.5 |
| 20260903171528 | 13 | 194 | 0.0 | 9.7 | 0.00 | 1.35 | 0.41 | 89 | 997.5 |
| 20260903171035 | 13 | 163 | 1.6 | 12.9 | 0.00 | 1.35 | 0.41 | 89 | 997.5 |
| 20260903170546 | 13 | 191 | 3.2 | 12.9 | 0.00 | 1.35 | 0.41 | 89 | 997.5 |
| 20260903170011 | 13 | 226 | 0.0 | 9.7 | 0.03 | 1.40 | 0.41 | 89 | 997.5 |
| 20260903165512 | 13 | 147 | 1.6 | 9.7 | 0.03 | 1.40 | 0.41 | 90 | 997.6 |
| 20260903165026 | 13 | 181 | 1.6 | 6.4 | 0.03 | 1.40 | 0.41 | 90 | 997.8 |
| 20260903164554 | 13 | 203 | 1.6 | 16.1 | 0.03 | 1.40 | 0.41 | 90 | 997.9 |
| 20260903164103 | 12 | 154 | 6.4 | 16.1 | 0.03 | 1.40 | 0.41 | 90 | 997.9 |
| 20260903163509 | 13 | 234 | 3.2 | 8.0 | 0.03 | 1.40 | 0.41 | 90 | 998.0 |
| 20260903163047 | 12 | 46 | 0.0 | 8.0 | 0.03 | 1.40 | 0.41 | 90 | 998.0 |
| 20260903162554 | 12 | 171 | 0.0 | 8.0 | 0.03 | 1.40 | 0.41 | 91 | 998.0 |
| 20260903162100 | 12 | 207 | 1.6 | 12.9 | 0.05 | 1.40 | 0.41 | 90 | 998.0 |
| 20260903161528 | 12 | 212 | 1.6 | 12.9 | 0.05 | 1.40 | 0.41 | 90 | 998.2 |
| 20260903161032 | 12 | 211 | 0.0 | 4.8 | 0.08 | 1.40 | 0.41 | 90 | 998.0 |
| 20260903160540 | 12 | 211 | 1.6 | 4.8 | 0.10 | 1.40 | 0.41 | 90 | 998.2 |
| 20260903160003 | 12 | 217 | 0.0 | 9.7 | 0.08 | 1.37 | 0.38 | 90 | 998.1 |
| 20260903155516 | 12 | 200 | 0.0 | 4.8 | 0.08 | 1.37 | 0.38 | 90 | 998.0 |
| 20260903155023 | 12 | 200 | 0.0 | 6.4 | 0.08 | 1.37 | 0.38 | 90 | 998.0 |
| 20260903154556 | 12 | 200 | 0.0 | 6.4 | 0.10 | 1.37 | 0.38 | 90 | 998.0 |
| 20260903154048 | 12 | 158 | 0.0 | 12.9 | 0.10 | 1.37 | 0.38 | 90 | 998.0 |
| 20260903153557 | 12 | 157 | 1.6 | 14.5 | 0.10 | 1.37 | 0.38 | 90 | 998.1 |
| 20260903153037 | 12 | 199 | 1.6 | 14.5 | 0.10 | 1.37 | 0.38 | 90 | 998.0 |
| 20260903152541 | 11 | 168 | 1.6 | 14.5 | 0.10 | 1.37 | 0.38 | 90 | 997.9 |
| 20260903152049 | 11 | 180 | 3.2 | 19.3 | 0.10 | 1.35 | 0.36 | 90 | 997.8 |
| 20260903151521 | 12 | 147 | 4.8 | 19.3 | 0.10 | 1.35 | 0.36 | 90 | 997.7 |
| 20260903151029 | 11 | 167 | 4.8 | 19.3 | 0.08 | 1.32 | 0.33 | 90 | 997.6 |
| 20260903150526 | 11 | 252 | 6.4 | 14.5 | 0.05 | 1.30 | 0.30 | 90 | 997.7 |
| 20260903150105 | 11 | 202 | 4.8 | 14.5 | 0.05 | 1.30 | 0.30 | 90 | 997.7 |
| 20260903145506 | 11 | 203 | 6.4 | 16.1 | 0.08 | 1.30 | 0.30 | 90 | 997.4 |
| 20260903145102 | 11 | 211 | 6.4 | 20.9 | 0.08 | 1.30 | 0.30 | 90 | 997.5 |
| 20260903144540 | 12 | 243 | 6.4 | 20.9 | 0.05 | 1.27 | 0.28 | 90 | 997.5 |
| 20260903144046 | 12 | 215 | 4.8 | 16.1 | 0.08 | 1.27 | 0.28 | 90 | 997.4 |
| 20260903143554 | 12 | 154 | 4.8 | 19.3 | 0.08 | 1.27 | 0.28 | 90 | 997.3 |
| 20260903143022 | 12 | 140 | 1.6 | 19.3 | 0.08 | 1.27 | 0.28 | 90 | 997.2 |
| 20260903142530 | 12 | 199 | 3.2 | 14.5 | 0.08 | 1.27 | 0.28 | 90 | 997.3 |
| 20260903142040 | 12 | 271 | 3.2 | 14.5 | 0.05 | 1.24 | 0.25 | 90 | 997.3 |
| 20260903141608 | 12 | 184 | 3.2 | 16.1 | 0.05 | 1.24 | 0.25 | 90 | 997.2 |
| 20260903141004 | 12 | 165 | 3.2 | 16.1 | 0.05 | 1.24 | 0.25 | 90 | 997.1 |
| 20260903140523 | 12 | 221 | 6.4 | 16.1 | 0.05 | 1.24 | 0.25 | 90 | 997.1 |
| 20260903140048 | 12 | 196 | 4.8 | 16.1 | 0.05 | 1.24 | 0.25 | 90 | 997.2 |
| 20260903135556 | 12 | 182 | 4.8 | 16.1 | 0.05 | 1.22 | 0.23 | 90 | 997.1 |
| 20260903135006 | 12 | 193 | 6.4 | 19.3 | 0.05 | 1.22 | 0.23 | 90 | 996.9 |
| 20260903134546 | 12 | 188 | 4.8 | 16.1 | 0.08 | 1.22 | 0.23 | 90 | 996.9 |
| 20260903134044 | 12 | 218 | 3.2 | 16.1 | 0.05 | 1.19 | 0.20 | 90 | 996.9 |
| 20260903133552 | 12 | 208 | 4.8 | 11.3 | 0.10 | 1.19 | 0.20 | 90 | 997.0 |
| 20260903133011 | 12 | 190 | 4.8 | 12.9 | 0.13 | 1.19 | 0.20 | 90 | 996.9 |
| 20260903132602 | 12 | 223 | 3.2 | 12.9 | 0.15 | 1.19 | 0.20 | 90 | 997.0 |
| 20260903132008 | 12 | 205 | 3.2 | 20.9 | 0.15 | 1.19 | 0.20 | 89 | 996.8 |
| 20260903131601 | 12 | 189 | 6.4 | 20.9 | 0.15 | 1.19 | 0.20 | 89 | 996.7 |
| 20260903131049 | 12 | 172 | 4.8 | 17.7 | 0.18 | 1.19 | 0.20 | 89 | 996.7 |
| 20260903130551 | 12 | 175 | 3.2 | 20.9 | 0.18 | 1.19 | 0.20 | 89 | 996.8 |
| 20260903130034 | 12 | 248 | 4.8 | 20.9 | 0.18 | 1.19 | 0.20 | 89 | 996.8 |
| 20260903125544 | 12 | 196 | 6.4 | 14.5 | 0.15 | 1.17 | 0.18 | 89 | 996.8 |
| 20260903125052 | 12 | 229 | 3.2 | 8.0 | 0.15 | 1.17 | 0.18 | 89 | 996.7 |
| 20260903124524 | 12 | 166 | 1.6 | 8.0 | 0.13 | 1.14 | 0.15 | 89 | 996.9 |
| 20260903124029 | 12 | 119 | 1.6 | 12.9 | 0.10 | 1.12 | 0.15 | 89 | 997.0 |
| 20260903123533 | 12 | 140 | 3.2 | 17.7 | 0.08 | 1.09 | 0.10 | 89 | 997.0 |
| 20260903123105 | 12 | 155 | 3.2 | 17.7 | 0.03 | 1.04 | 0.08 | 89 | 997.0 |
| 20260903122513 | 12 | 180 | 4.8 | 14.5 | 0.03 | 1.04 | 0.05 | 89 | 997.0 |
| 20260903122022 | 12 | 225 | 1.6 | 14.5 | 0.03 | 1.04 | 0.05 | 89 | 997.1 |
| 20260903121559 | 12 | 209 | 3.2 | 16.1 | 0.03 | 1.04 | 0.05 | 89 | 997.0 |
| 20260903121052 | 12 | 163 | 3.2 | 16.1 | 0.00 | 1.02 | 0.05 | 89 | 996.9 |
| 20260903120600 | 12 | 273 | 1.6 | 16.1 | 0.00 | 1.02 | 0.03 | 89 | 997.0 |
| 20260903120030 | 12 | 184 | 3.2 | 12.9 | 0.00 | 1.02 | 0.03 | 89 | 997.0 |